Previsão horária em Aalen

Hoje, 27 Janeiro, Quarta-feira

Tempo Temperatura Precipitação Vento Pressão Humidade
00:00 -4°C° 0.1 mm 4 m/s 723 mmHg 94%
01:00 -4°C° 0 mm 3 m/s 723 mmHg 95%
02:00 -4°C° 0 mm 2 m/s 722 mmHg 95%
03:00 -4°C° 0 mm 2 m/s 722 mmHg 94%
04:00 -5°C° 0 mm 2 m/s 721 mmHg 93%
05:00 -5°C° 0 mm 2 m/s 721 mmHg 92%
06:00 -5°C° 0 mm 2 m/s 721 mmHg 91%
07:00 -5°C° 0 mm 2 m/s 720 mmHg 89%
08:00 -4°C° 0 mm 2 m/s 720 mmHg 87%
09:00 -4°C° 0 mm 2 m/s 720 mmHg 84%
10:00 -3°C° 0 mm 2 m/s 720 mmHg 82%
11:00 -4°C° 0.2 mm 3 m/s 720 mmHg 86%
12:00 -2°C° 0.2 mm 3 m/s 719 mmHg 90%
13:00 -2°C° 0.2 mm 3 m/s 719 mmHg 93%
14:00 -2°C° 0.3 mm 3 m/s 719 mmHg 93%
15:00 -2°C° 0.3 mm 3 m/s 718 mmHg 93%
16:00 -2°C° 0.3 mm 3 m/s 718 mmHg 93%
17:00 -1°C° 0.2 mm 3 m/s 718 mmHg 95%
18:00 -1°C° 0.2 mm 3 m/s 718 mmHg 96%
19:00 -2°C° 0.2 mm 4 m/s 718 mmHg 97%
20:00 -1°C° 0.1 mm 4 m/s 719 mmHg 97%
21:00 -1°C° 0.1 mm 4 m/s 719 mmHg 98%
22:00 -1°C° 0.1 mm 4 m/s 719 mmHg 98%
23:00 -1°C° 0 mm 4 m/s 719 mmHg 98%

Amanhã, 28 Janeiro, Quinta-feira

Tempo Temperatura Precipitação Vento Pressão Humidade
00:00 -1°C° 0 mm 4 m/s 719 mmHg 97%
01:00 -1°C° 0 mm 4 m/s 719 mmHg 97%
02:00 0°C° 0 mm 3 m/s 718 mmHg 96%
03:00 0°C° 0 mm 3 m/s 718 mmHg 96%
04:00 -1°C° 0 mm 2 m/s 717 mmHg 95%
05:00 +1°C° 0.1 mm 2 m/s 717 mmHg 96%
06:00 +1°C° 0.1 mm 2 m/s 717 mmHg 97%
07:00 +2°C° 0.1 mm 2 m/s 716 mmHg 97%
08:00 +1°C° 0.4 mm 3 m/s 715 mmHg 98%
09:00 +2°C° 0.4 mm 3 m/s 714 mmHg 98%
10:00 +1°C° 0.4 mm 4 m/s 714 mmHg 99%
11:00 +3°C° 2 mm 4 m/s 713 mmHg 99%
12:00 +2°C° 2 mm 5 m/s 712 mmHg 98%
13:00 +3°C° 2 mm 6 m/s 711 mmHg 98%
14:00 +3°C° 1.5 mm 7 m/s 711 mmHg 98%
15:00 +4°C° 1.5 mm 8 m/s 711 mmHg 97%
16:00 +4°C° 1.5 mm 8 m/s 710 mmHg 96%
17:00 +4°C° 0.6 mm 8 m/s 710 mmHg 96%
18:00 +5°C° 0.6 mm 8 m/s 711 mmHg 95%
19:00 +5°C° 0.6 mm 8 m/s 711 mmHg 95%
20:00 +5°C° 0.2 mm 8 m/s 712 mmHg 94%
21:00 +5°C° 0.2 mm 8 m/s 712 mmHg 94%
22:00 +5°C° 0.2 mm 7 m/s 712 mmHg 93%
23:00 +5°C° 0.1 mm 7 m/s 713 mmHg 94%

Depois de amanhã, 29 Janeiro, Sexta-feira

Tempo Temperatura Precipitação Vento Pressão Humidade
00:00 +4°C° 0.1 mm 6 m/s 713 mmHg 94%
01:00 +4°C° 0.1 mm 6 m/s 713 mmHg 94%
02:00 +5°C° 0 mm 5 m/s 712 mmHg 95%
03:00 +5°C° 0 mm 5 m/s 712 mmHg 95%
04:00 +4°C° 0 mm 4 m/s 711 mmHg 96%
05:00 +4°C° 0.5 mm 4 m/s 710 mmHg 96%
06:00 +4°C° 0.5 mm 4 m/s 710 mmHg 96%
07:00 +4°C° 0.5 mm 3 m/s 709 mmHg 97%
08:00 +4°C° 1.5 mm 4 m/s 708 mmHg 96%
09:00 +4°C° 1.5 mm 4 m/s 707 mmHg 96%
10:00 +3°C° 1.5 mm 5 m/s 707 mmHg 96%
11:00 +5°C° 0.9 mm 5 m/s 707 mmHg 95%
12:00 +4°C° 0.9 mm 6 m/s 707 mmHg 94%
13:00 +5°C° 0.9 mm 7 m/s 708 mmHg 93%
14:00 +5°C° 0.1 mm 7 m/s 708 mmHg 90%
15:00 +5°C° 0.1 mm 7 m/s 709 mmHg 88%
16:00 +4°C° 0.1 mm 8 m/s 710 mmHg 85%
17:00 +4°C° 0.1 mm 7 m/s 710 mmHg 86%
18:00 +3°C° 0.1 mm 6 m/s 711 mmHg 87%
19:00 +3°C° 0.1 mm 5 m/s 711 mmHg 89%
20:00 +3°C° 0.4 mm 6 m/s 711 mmHg 89%
21:00 +3°C° 0.4 mm 6 m/s 710 mmHg 90%
22:00 +3°C° 0.4 mm 6 m/s 710 mmHg 91%
23:00 +3°C° 0.4 mm 6 m/s 710 mmHg 91%

30 Janeiro, Sábado

Tempo Temperatura Precipitação Vento Pressão Humidade
00:00 +3°C° 0.4 mm 6 m/s 710 mmHg 91%
01:00 +3°C° 0.4 mm 6 m/s 710 mmHg 91%
02:00 +3°C° 0.1 mm 6 m/s 710 mmHg 91%
03:00 +2°C° 0.1 mm 6 m/s 709 mmHg 90%
04:00 +2°C° 0.1 mm 6 m/s 709 mmHg 89%
05:00 +2°C° 0 mm 6 m/s 709 mmHg 90%
06:00 +2°C° 0 mm 5 m/s 708 mmHg 90%
07:00 +2°C° 0 mm 5 m/s 708 mmHg 91%
08:00 +3°C° 0.1 mm 4 m/s 708 mmHg 91%
09:00 +3°C° 0.1 mm 4 m/s 708 mmHg 91%
10:00 +3°C° 0.1 mm 4 m/s 707 mmHg 91%
11:00 +4°C° 0.1 mm 3 m/s 707 mmHg 92%
12:00 +5°C° 0.1 mm 2 m/s 707 mmHg 93%
13:00 +6°C° 0.1 mm 1 m/s 706 mmHg 94%
14:00 +6°C° 0.5 mm 1 m/s 706 mmHg 95%
15:00 +5°C° 0.5 mm 1 m/s 706 mmHg 96%
16:00 +5°C° 0.5 mm 1 m/s 705 mmHg 96%
17:00 +5°C° 0.9 mm 1 m/s 705 mmHg 97%
18:00 +3°C° 0.9 mm 2 m/s 706 mmHg 97%
19:00 +1°C° 0.9 mm 3 m/s 706 mmHg 98%
20:00 0°C° 0.8 mm 4 m/s 706 mmHg 97%
21:00 -1°C° 0.8 mm 4 m/s 706 mmHg 97%
22:00 -1°C° 0.8 mm 4 m/s 707 mmHg 97%
23:00 -2°C° 0.3 mm 4 m/s 707 mmHg 96%

31 Janeiro, Domingo

Tempo Temperatura Precipitação Vento Pressão Humidade
00:00 -3°C° 0.3 mm 4 m/s 707 mmHg 96%
01:00 -2°C° 0.3 mm 3 m/s 708 mmHg 96%
02:00 -4°C° 0.3 mm 3 m/s 708 mmHg 95%
03:00 -4°C° 0.3 mm 3 m/s 708 mmHg 94%
04:00 -4°C° 0.3 mm 3 m/s 709 mmHg 93%
05:00 -5°C° 0.1 mm 3 m/s 709 mmHg 92%
06:00 -5°C° 0.1 mm 3 m/s 710 mmHg 91%
07:00 -5°C° 0.1 mm 3 m/s 711 mmHg 91%
08:00 -4°C° 0 mm 2 m/s 711 mmHg 89%
09:00 -4°C° 0 mm 2 m/s 712 mmHg 87%
10:00 -4°C° 0 mm 2 m/s 712 mmHg 85%
11:00 -3°C° 0 mm 2 m/s 712 mmHg 83%
12:00 -2°C° 0 mm 2 m/s 712 mmHg 81%
13:00 -1°C° 0 mm 2 m/s 712 mmHg 79%
14:00 -1°C° 0 mm 2 m/s 712 mmHg 80%
15:00 -1°C° 0 mm 2 m/s 712 mmHg 81%
16:00 -1°C° 0 mm 2 m/s 712 mmHg 83%
17:00 -2°C° 0 mm 2 m/s 712 mmHg 86%
18:00 -3°C° 0 mm 2 m/s 711 mmHg 88%
19:00 -4°C° 0 mm 3 m/s 711 mmHg 91%
20:00 -4°C° 0 mm 3 m/s 711 mmHg 91%
21:00 -4°C° 0 mm 3 m/s 711 mmHg 91%
22:00 -2°C° 0 mm 3 m/s 710 mmHg 91%
23:00 -4°C° 0 mm 3 m/s 710 mmHg 92%

1 Fevereiro, Segunda-feira

Tempo Temperatura Precipitação Vento Pressão Humidade
00:00 -4°C° 0 mm 3 m/s 710 mmHg 92%
01:00 -4°C° 0 mm 3 m/s 709 mmHg 93%
02:00 -4°C° 0 mm 3 m/s 709 mmHg 93%
03:00 -4°C° 0 mm 3 m/s 709 mmHg 92%
04:00 -4°C° 0 mm 3 m/s 709 mmHg 92%
05:00 -3°C° 0 mm 2 m/s 709 mmHg 92%
06:00 -3°C° 0 mm 2 m/s 709 mmHg 93%
07:00 -3°C° 0 mm 2 m/s 710 mmHg 93%
08:00 -2°C° 0.1 mm 2 m/s 710 mmHg 93%
09:00 -2°C° 0.1 mm 2 m/s 711 mmHg 94%
10:00 -1°C° 0.1 mm 2 m/s 711 mmHg 94%
11:00 +1°C° 0 mm 2 m/s 711 mmHg 94%
12:00 +2°C° 0 mm 2 m/s 711 mmHg 95%
13:00 +2°C° 0 mm 2 m/s 711 mmHg 95%
14:00 +2°C° 0.1 mm 2 m/s 711 mmHg 96%
15:00 +3°C° 0.1 mm 2 m/s 711 mmHg 97%
16:00 +3°C° 0.1 mm 2 m/s 711 mmHg 98%
17:00 +2°C° 0.4 mm 3 m/s 711 mmHg 97%
18:00 +3°C° 0.4 mm 3 m/s 712 mmHg 97%
19:00 +3°C° 0.4 mm 4 m/s 712 mmHg 96%
20:00 +3°C° 0.7 mm 4 m/s 712 mmHg 96%
21:00 +3°C° 0.7 mm 4 m/s 712 mmHg 96%
22:00 +4°C° 0.7 mm 4 m/s 712 mmHg 95%
23:00 +3°C° 0.1 mm 4 m/s 712 mmHg 94%
Mostrar mais